Location: Campestrin
(46.4667°N, 11.7167°E)
Time: 04:17:40
(UTC+00:00)

ERS-1 Rocket - Pass Details

Date: 18 April 2021
Orbit: 753 x 757 km, 98.4° (Epoch: 16 May)

Event Time Altitude Azimuth Distance (km) Brightness Sun altitude
Exits shadow 20:54:39 69° 185° (S) 809 2.8 -24.7°
Maximum altitude 20:55:16 83° 256° (WSW) 766 2.9 -24.7°
Drops below altitude 10° 21:00:19 10° 345° (NNW) 2,289 6.4 -25.3°
Sets 21:02:38 0° 346° (NNW) 3,218 7.3 -25.5°
